Chehalis, WA
on Tuesday, December 18, 2012

Tuesday
Previous Day Next Day
Daily Summary
 ActualAverage (KOLM)Record (KOLM)
Temperature
Mean Temperature °F / °C 38°F / 3°C  
Max Temperature 37°F / 3°C 44°F / 7°C 56°F / 13°C (2004)
Min Temperature 32°F / 0°C 32°F / 0°C 13°F / -10°C (2005)
Degree Days
Heating Degree Days 30 27  
Month to date heating degree days 475  
Since 1 July heating degree days 1920  
Cooling Degree Days 0 0  
Month to date cooling degree days 0  
Year to date cooling degree days 106  
Moisture
Dew Point 32°F / 0°C   
Average Humidity 90    
Maximum Humidity 100    
Minimum Humidity 81    
Precipitation
Precipitation 0.12 in / 3.05 cm 0.21 in / 5.33 cm 1.11 in / 2.82 cm (1960)
Month to date precipitation 4.49  
Year to date precipitation 47.03  
Wind
Wind Speed 8 mph / 13 km/h   
Max Wind Speed 12 mph / 19 km/h   
Max Gust Speed 18 mph / 29 km/h   
Visibility 9 miles / 15 kilometers   
Events Rain   

Key: T is trace of precipitation, MM is missing value
Source: NWS Daily Summary
Time(PST)TemperatureDew PointHumidity Pressure Visibility Wind DirectionWind SpeedGust SpeedPrecipitationEvents Conditions
12:15 AM 35.6°F / 2.0°C 32.0°F / 0.0°C 87% 29.93 in / 1013.4 hPa 10.0 miles / 16.1 kilometers South 9.2 mph / 14.8 km/h - N/A   Overcast
12:35 AM 33.8°F / 1.0°C 32.0°F / 0.0°C 93% 29.93 in / 1013.4 hPa 10.0 miles / 16.1 kilometers South 6.9 mph / 11.1 km/h - N/A   Scattered Clouds
12:55 AM 33.8°F / 1.0°C 32.0°F / 0.0°C 93% 29.93 in / 1013.4 hPa 10.0 miles / 16.1 kilometers SSW 4.6 mph / 7.4 km/h - N/A   Mostly Cloudy
1:15 AM 35.6°F / 2.0°C 32.0°F / 0.0°C 87% 29.93 in / 1013.4 hPa 10.0 miles / 16.1 kilometers WSW 3.5 mph / 5.6 km/h - N/A   Overcast
1:35 AM 35.6°F / 2.0°C 32.0°F / 0.0°C 87% 29.93 in / 1013.4 hPa 7.0 miles / 11.3 kilometers South 9.2 mph / 14.8 km/h - 0.01 in / 0.3 cm Rain Light Rain
1:55 AM 35.6°F / 2.0°C 32.0°F / 0.0°C 87% 29.92 in / 1013.1 hPa 10.0 miles / 16.1 kilometers SSE 10.4 mph / 16.7 km/h - 0.01 in / 0.3 cm Rain Light Rain
2:15 AM 35.6°F / 2.0°C 32.0°F / 0.0°C 87% 29.93 in / 1013.4 hPa 10.0 miles / 16.1 kilometers South 6.9 mph / 11.1 km/h - N/A   Overcast
2:35 AM 35.6°F / 2.0°C 32.0°F / 0.0°C 87% 29.93 in / 1013.4 hPa 6.0 miles / 9.7 kilometers South 8.1 mph / 13.0 km/h - 0.01 in / 0.3 cm   Overcast
3:15 AM 35.6°F / 2.0°C 32.0°F / 0.0°C 87% 29.92 in / 1013.1 hPa 10.0 miles / 16.1 kilometers South 9.2 mph / 14.8 km/h - N/A   Overcast
3:35 AM 33.8°F / 1.0°C 32.0°F / 0.0°C 93% 29.92 in / 1013.1 hPa 10.0 miles / 16.1 kilometers South 9.2 mph / 14.8 km/h - N/A   Overcast
3:55 AM 33.8°F / 1.0°C 32.0°F / 0.0°C 93% 29.92 in / 1013.1 hPa 10.0 miles / 16.1 kilometers South 11.5 mph / 18.5 km/h 16.1 mph / 25.9 km/h N/A   Overcast
4:15 AM 35.6°F / 2.0°C 32.0°F / 0.0°C 87% 29.92 in / 1013.1 hPa 10.0 miles / 16.1 kilometers SSW 5.8 mph / 9.3 km/h - N/A   Overcast
4:35 AM 35.6°F / 2.0°C 32.0°F / 0.0°C 87% 29.93 in / 1013.4 hPa 7.0 miles / 11.3 kilometers South 4.6 mph / 7.4 km/h - N/A   Overcast
4:55 AM 35.6°F / 2.0°C 32.0°F / 0.0°C 87% 29.94 in / 1013.8 hPa 10.0 miles / 16.1 kilometers SSE 3.5 mph / 5.6 km/h - N/A   Overcast
5:15 AM 35.6°F / 2.0°C 32.0°F / 0.0°C 87% 29.93 in / 1013.4 hPa 10.0 miles / 16.1 kilometers SSE 4.6 mph / 7.4 km/h - N/A   Overcast
5:35 AM 35.6°F / 2.0°C 32.0°F / 0.0°C 87% 29.95 in / 1014.1 hPa 5.0 miles / 8.0 kilometers South 5.8 mph / 9.3 km/h - 0.01 in / 0.3 cm   Overcast
5:55 AM 32.0°F / 0.0°C 32.0°F / 0.0°C 100% 29.94 in / 1013.8 hPa 1.0 miles / 1.6 kilometers South 8.1 mph / 13.0 km/h - 0.01 in / 0.3 cm   Overcast
6:15 AM 32.0°F / 0.0°C 32.0°F / 0.0°C 100% 29.95 in / 1014.1 hPa 10.0 miles / 16.1 kilometers South 8.1 mph / 13.0 km/h - N/A Rain Light Rain
6:35 AM 32.0°F / 0.0°C 32.0°F / 0.0°C 100% 29.95 in / 1014.1 hPa 3.0 miles / 4.8 kilometers South 8.1 mph / 13.0 km/h - 0.01 in / 0.3 cm Rain Light Rain
6:55 AM 32.0°F / 0.0°C 32.0°F / 0.0°C 100% 29.96 in / 1014.4 hPa 3.0 miles / 4.8 kilometers SW 4.6 mph / 7.4 km/h - 0.01 in / 0.3 cm Rain Light Rain
7:15 AM 32.0°F / 0.0°C 32.0°F / 0.0°C 100% 29.96 in / 1014.4 hPa 3.0 miles / 4.8 kilometers South 5.8 mph / 9.3 km/h - N/A Rain Light Rain
7:35 AM 32.0°F / 0.0°C 32.0°F / 0.0°C 100% 29.96 in / 1014.4 hPa 10.0 miles / 16.1 kilometers South 5.8 mph / 9.3 km/h - N/A Rain Light Rain
7:55 AM 32.0°F / 0.0°C 32.0°F / 0.0°C 100% 29.96 in / 1014.4 hPa 8.0 miles / 12.9 kilometers SSE 4.6 mph / 7.4 km/h - N/A   Mostly Cloudy
8:15 AM 33.8°F / 1.0°C 32.0°F / 0.0°C 93% 29.97 in / 1014.8 hPa 5.0 miles / 8.0 kilometers South 6.9 mph / 11.1 km/h - N/A Rain Light Rain
8:35 AM 32.0°F / 0.0°C 32.0°F / 0.0°C 100% 29.97 in / 1014.8 hPa 4.0 miles / 6.4 kilometers SSE 6.9 mph / 11.1 km/h - N/A   Mostly Cloudy
8:55 AM 33.8°F / 1.0°C 32.0°F / 0.0°C 93% 29.97 in / 1014.8 hPa 10.0 miles / 16.1 kilometers South 8.1 mph / 13.0 km/h - N/A   Mostly Cloudy
9:15 AM 33.8°F / 1.0°C 32.0°F / 0.0°C 93% 29.98 in / 1015.1 hPa 10.0 miles / 16.1 kilometers SSW 5.8 mph / 9.3 km/h - 0.01 in / 0.3 cm   Mostly Cloudy
9:35 AM 33.8°F / 1.0°C 32.0°F / 0.0°C 93% 29.98 in / 1015.1 hPa 10.0 miles / 16.1 kilometers South 6.9 mph / 11.1 km/h - 0.03 in / 0.8 cm   Overcast
9:55 AM 33.8°F / 1.0°C 32.0°F / 0.0°C 93% 29.99 in / 1015.5 hPa 10.0 miles / 16.1 kilometers South 10.4 mph / 16.7 km/h - 0.04 in / 1.0 cm   Overcast
10:15 AM 33.8°F / 1.0°C 32.0°F / 0.0°C 93% 29.99 in / 1015.5 hPa 10.0 miles / 16.1 kilometers South 9.2 mph / 14.8 km/h - 0.01 in / 0.3 cm   Mostly Cloudy
10:35 AM 35.6°F / 2.0°C 32.0°F / 0.0°C 87% 30.00 in / 1015.8 hPa 10.0 miles / 16.1 kilometers South 8.1 mph / 13.0 km/h - 0.02 in / 0.5 cm   Mostly Cloudy
10:55 AM 35.6°F / 2.0°C 32.0°F / 0.0°C 87% 30.00 in / 1015.8 hPa 10.0 miles / 16.1 kilometers SSE 6.9 mph / 11.1 km/h - 0.04 in / 1.0 cm   Mostly Cloudy
11:15 AM 35.6°F / 2.0°C 32.0°F / 0.0°C 87% 30.00 in / 1015.8 hPa 10.0 miles / 16.1 kilometers South 8.1 mph / 13.0 km/h - N/A   Mostly Cloudy
11:35 AM 35.6°F / 2.0°C 32.0°F / 0.0°C 87% 29.99 in / 1015.5 hPa 10.0 miles / 16.1 kilometers South 8.1 mph / 13.0 km/h - N/A   Overcast
11:55 AM 35.6°F / 2.0°C 33.8°F / 1.0°C 93% 30.00 in / 1015.8 hPa 10.0 miles / 16.1 kilometers South 6.9 mph / 11.1 km/h - N/A   Mostly Cloudy
12:15 PM 37.4°F / 3.0°C 32.0°F / 0.0°C 81% 30.00 in / 1015.8 hPa 10.0 miles / 16.1 kilometers SSE 6.9 mph / 11.1 km/h - N/A   Mostly Cloudy
12:35 PM 37.4°F / 3.0°C 33.8°F / 1.0°C 87% 30.00 in / 1015.8 hPa 10.0 miles / 16.1 kilometers South 8.1 mph / 13.0 km/h - N/A   Mostly Cloudy
12:55 PM 37.4°F / 3.0°C 33.8°F / 1.0°C 87% 29.99 in / 1015.5 hPa 10.0 miles / 16.1 kilometers South 9.2 mph / 14.8 km/h - N/A   Scattered Clouds
1:15 PM 37.4°F / 3.0°C 33.8°F / 1.0°C 87% 29.99 in / 1015.5 hPa 10.0 miles / 16.1 kilometers South 9.2 mph / 14.8 km/h - N/A   Scattered Clouds
1:35 PM 37.4°F / 3.0°C 33.8°F / 1.0°C 87% 29.99 in / 1015.5 hPa 10.0 miles / 16.1 kilometers South 8.1 mph / 13.0 km/h - N/A   Partly Cloudy
1:55 PM 37.4°F / 3.0°C 33.8°F / 1.0°C 87% 29.99 in / 1015.5 hPa 10.0 miles / 16.1 kilometers South 8.1 mph / 13.0 km/h - N/A   Partly Cloudy
2:15 PM 37.4°F / 3.0°C 33.8°F / 1.0°C 87% 29.99 in / 1015.5 hPa 10.0 miles / 16.1 kilometers South 10.4 mph / 16.7 km/h - N/A   Scattered Clouds
2:35 PM 37.4°F / 3.0°C 32.0°F / 0.0°C 81% 29.99 in / 1015.5 hPa 10.0 miles / 16.1 kilometers South 10.4 mph / 16.7 km/h - N/A   Mostly Cloudy
2:55 PM 37.4°F / 3.0°C 33.8°F / 1.0°C 87% 29.99 in / 1015.5 hPa 10.0 miles / 16.1 kilometers South 5.8 mph / 9.3 km/h - N/A   Mostly Cloudy
3:15 PM 37.4°F / 3.0°C 33.8°F / 1.0°C 87% 30.00 in / 1015.8 hPa 10.0 miles / 16.1 kilometers SW 4.6 mph / 7.4 km/h - N/A   Mostly Cloudy
3:35 PM 37.4°F / 3.0°C 35.6°F / 2.0°C 93% 30.00 in / 1015.8 hPa 10.0 miles / 16.1 kilometers SSW 4.6 mph / 7.4 km/h - N/A   Overcast
3:55 PM 37.4°F / 3.0°C 33.8°F / 1.0°C 87% 30.00 in / 1015.8 hPa 9.0 miles / 14.5 kilometers South 8.1 mph / 13.0 km/h - N/A   Mostly Cloudy
4:15 PM 35.6°F / 2.0°C 33.8°F / 1.0°C 93% 30.00 in / 1015.8 hPa 10.0 miles / 16.1 kilometers South 6.9 mph / 11.1 km/h - N/A   Scattered Clouds
4:35 PM 35.6°F / 2.0°C 33.8°F / 1.0°C 93% 30.01 in / 1016.1 hPa 10.0 miles / 16.1 kilometers South 8.1 mph / 13.0 km/h - N/A   Mostly Cloudy
4:55 PM 35.6°F / 2.0°C 33.8°F / 1.0°C 93% 30.01 in / 1016.1 hPa 10.0 miles / 16.1 kilometers SSE 9.2 mph / 14.8 km/h - N/A   Overcast
5:15 PM 35.6°F / 2.0°C 32.0°F / 0.0°C 87% 30.01 in / 1016.1 hPa 10.0 miles / 16.1 kilometers South 8.1 mph / 13.0 km/h - N/A   Overcast
5:35 PM 35.6°F / 2.0°C 32.0°F / 0.0°C 87% 30.01 in / 1016.1 hPa 10.0 miles / 16.1 kilometers SSE 6.9 mph / 11.1 km/h - N/A   Mostly Cloudy
5:55 PM 35.6°F / 2.0°C 32.0°F / 0.0°C 87% 30.02 in / 1016.5 hPa 10.0 miles / 16.1 kilometers South 8.1 mph / 13.0 km/h - N/A   Partly Cloudy
6:15 PM 33.8°F / 1.0°C 32.0°F / 0.0°C 93% 30.02 in / 1016.5 hPa 8.0 miles / 12.9 kilometers South 6.9 mph / 11.1 km/h - N/A   Mostly Cloudy
6:35 PM 33.8°F / 1.0°C 32.0°F / 0.0°C 93% 30.02 in / 1016.5 hPa 10.0 miles / 16.1 kilometers South 8.1 mph / 13.0 km/h - N/A   Mostly Cloudy
6:55 PM 33.8°F / 1.0°C 32.0°F / 0.0°C 93% 30.02 in / 1016.5 hPa 10.0 miles / 16.1 kilometers South 8.1 mph / 13.0 km/h - N/A   Partly Cloudy
7:15 PM 33.8°F / 1.0°C 32.0°F / 0.0°C 93% 30.02 in / 1016.5 hPa 10.0 miles / 16.1 kilometers South 6.9 mph / 11.1 km/h - N/A   Clear
7:35 PM 33.8°F / 1.0°C 32.0°F / 0.0°C 93% 30.02 in / 1016.5 hPa 10.0 miles / 16.1 kilometers South 6.9 mph / 11.1 km/h - N/A   Partly Cloudy
7:55 PM 33.8°F / 1.0°C 32.0°F / 0.0°C 93% 30.02 in / 1016.5 hPa 10.0 miles / 16.1 kilometers South 8.1 mph / 13.0 km/h - N/A   Partly Cloudy
8:15 PM 33.8°F / 1.0°C 32.0°F / 0.0°C 93% 30.02 in / 1016.5 hPa 10.0 miles / 16.1 kilometers South 6.9 mph / 11.1 km/h - N/A   Mostly Cloudy
8:55 PM 35.6°F / 2.0°C 32.0°F / 0.0°C 87% 30.01 in / 1016.1 hPa 10.0 miles / 16.1 kilometers South 4.6 mph / 7.4 km/h - N/A   Overcast
9:15 PM 35.6°F / 2.0°C 32.0°F / 0.0°C 87% 30.02 in / 1016.5 hPa 10.0 miles / 16.1 kilometers SSW 3.5 mph / 5.6 km/h - N/A   Overcast
9:35 PM 35.6°F / 2.0°C 32.0°F / 0.0°C 87% 30.02 in / 1016.5 hPa 10.0 miles / 16.1 kilometers South 9.2 mph / 14.8 km/h - N/A   Overcast
9:55 PM 35.6°F / 2.0°C 32.0°F / 0.0°C 87% 30.02 in / 1016.5 hPa 10.0 miles / 16.1 kilometers South 10.4 mph / 16.7 km/h - N/A   Overcast
10:15 PM 35.6°F / 2.0°C 32.0°F / 0.0°C 87% 30.02 in / 1016.5 hPa 10.0 miles / 16.1 kilometers South 11.5 mph / 18.5 km/h - N/A   Overcast
10:35 PM 35.6°F / 2.0°C 32.0°F / 0.0°C 87% 30.01 in / 1016.1 hPa 10.0 miles / 16.1 kilometers South 9.2 mph / 14.8 km/h - N/A   Overcast
10:55 PM 35.6°F / 2.0°C 32.0°F / 0.0°C 87% 30.01 in / 1016.1 hPa 10.0 miles / 16.1 kilometers South 9.2 mph / 14.8 km/h 16.1 mph / 25.9 km/h N/A   Overcast
11:15 PM 35.6°F / 2.0°C 32.0°F / 0.0°C 87% 30.00 in / 1015.8 hPa 10.0 miles / 16.1 kilometers South 6.9 mph / 11.1 km/h - N/A   Overcast
11:35 PM 35.6°F / 2.0°C 32.0°F / 0.0°C 87% 30.00 in / 1015.8 hPa 10.0 miles / 16.1 kilometers South 10.4 mph / 16.7 km/h - N/A   Overcast
11:55 PM 35.6°F / 2.0°C 32.0°F / 0.0°C 87% 29.99 in / 1015.5 hPa 10.0 miles / 16.1 kilometers South 11.5 mph / 18.5 km/h 18.4 mph / 29.6 km/h N/A   Overcast
Moon Phase
Dec. 18 Dec. 20 Dec. 28 Jan. 04 Jan. 11
Sunrise:07:52 AM (PST) Moon Rise:11:14 AM (PST)12/18
Sunset:04:25 PM (PST) Moon Set:11:19 PM (PST)12/18

Copyright © 2014 The Weather Underground, Inc.